Change the Weather History Date:

Wednesday, December 14, 2011

  Actual Average Record
Temperature  
Mean Temperature 48 °F 51 °F  
Max Temperature 58 °F 61 °F 66 °F (2013)
Min Temperature 37 °F 42 °F 37 °F (1999)
Degree Days  
Heating Degree Days 17    
Month to date heating degree days 215  
Since 1 July heating degree days 1126  
Cooling Degree Days 0    
Month to date cooling degree days 0  
Year to date cooling degree days 33  
Moisture  
Dew Point 39 °F    
Average Humidity 74    
Maximum Humidity 92    
Minimum Humidity 55    
Precipitation  
Precipitation 0.00 in - 0.88 in (2002)
Month to date precipitation 0.19  
Year to date precipitation 16.58  
Since 1 July precipitation 3.79  
Sea Level Pressure  
Sea Level Pressure 30.28 in    
Wind  
Wind Speed 3 mph (East)    
Max Wind Speed 9 mph    
Max Gust Speed 12 mph    
Visibility 10 miles    
Events      
T = Trace of Precipitation, MM = Missing Value Source: NWS Daily Summary

Daily Weather History Graph

Daily Weather History Graph

Search for Another Location

Airport or City:

Trip Planner

Search our weather history database for the weather conditions in past years. The results will help you decide how hot, cold, wet, or windy it might be!

Date:

Astronomy

Dec. 14, 2011 Rise Set
Actual Time 7:11 AM PST 4:52 PM PST
Civil Twilight 6:42 AM PST 5:21 PM PST
Nautical Twilight 6:10 AM PST 5:53 PM PST
Astronomical Twilight 5:38 AM PST 6:25 PM PST
Moon 9:13 PM PST (12/14) 10:03 AM PST (12/14)
Length of Visible Light 10h 38m
Length of Day
9h 41m
Waning Gibbous, 82% of the Moon is Illuminated
Dec 14
Waning Gibbous
Dec 17
Last Quarter
Dec 24
New
Dec 31
First Quarter
Jan 8
Full

Hourly Weather History & Observations

Time (PST) Temp. Windchill Dew Point Humidity Pressure Visibility Wind Dir Wind Speed Gust Speed Precip Events Conditions
12:54 AM 43.0 °F 41.3 °F 37.9 °F 82% 30.19 in 10.0 mi ESE 3.5 mph - N/A   Clear
1:54 AM 41.0 °F 37.1 °F 36.0 °F 82% 30.21 in 8.0 mi East 5.8 mph - N/A   Clear
2:54 AM 41.0 °F 39.0 °F 36.0 °F 82% 30.22 in 10.0 mi ESE 3.5 mph - N/A   Clear
3:54 AM 39.0 °F 34.8 °F 35.1 °F 86% 30.22 in 10.0 mi East 5.8 mph - N/A   Clear
4:54 AM 39.0 °F 35.7 °F 35.1 °F 86% 30.24 in 10.0 mi ESE 4.6 mph - N/A   Clear
5:54 AM 37.9 °F 35.5 °F 35.1 °F 89% 30.26 in 10.0 mi East 3.5 mph - N/A   Clear
6:54 AM 39.0 °F 34.8 °F 35.1 °F 86% 30.26 in 10.0 mi ENE 5.8 mph - 0.00 in   Clear
7:54 AM 39.9 °F 36.7 °F 36.0 °F 86% 30.29 in 10.0 mi ENE 4.6 mph - N/A   Clear
8:54 AM 45.0 °F - 39.0 °F 80% 30.30 in 10.0 mi Calm Calm - N/A   Clear
9:54 AM 48.2 °F - 39.2 °F 71% 30.28 in 10.0 mi Calm Calm - N/A   Clear
10:54 AM 52.0 °F - 42.1 °F 69% 30.32 in 10.0 mi Calm Calm - N/A   Clear
11:54 AM 52.0 °F - 43.0 °F 71% 30.32 in 10.0 mi WSW 4.6 mph - N/A   Clear
12:54 PM 55.4 °F - 42.8 °F 63% 30.28 in 10.0 mi WNW 3.5 mph - N/A   Clear
1:54 PM 57.9 °F - 41.0 °F 53% 30.30 in 10.0 mi NW 3.5 mph - N/A   Clear
2:54 PM 53.1 °F - 43.0 °F 69% 30.31 in 7.0 mi WNW 5.8 mph - N/A   Clear
3:54 PM 54.0 °F - 43.0 °F 66% 30.30 in 9.0 mi Calm Calm - N/A   Clear
4:54 PM 51.1 °F - 43.0 °F 74% 30.29 in 9.0 mi NW 3.5 mph - N/A   Clear
5:54 PM 46.9 °F - 41.0 °F 80% 30.30 in 10.0 mi Calm Calm - N/A   Clear
6:54 PM 45.0 °F - 39.9 °F 82% 30.30 in 9.0 mi Calm Calm - N/A   Clear
7:54 PM 44.1 °F - 39.9 °F 85% 30.33 in 10.0 mi Calm Calm - N/A   Clear
8:54 PM 46.0 °F 44.8 °F 41.0 °F 83% 30.32 in 10.0 mi South 3.5 mph - N/A   Clear
9:54 PM 46.0 °F 43.1 °F 41.0 °F 83% 30.29 in 10.0 mi ESE 5.8 mph - N/A   Clear
10:54 PM 45.0 °F - 39.0 °F 80% 30.28 in 10.0 mi Calm Calm - N/A   Clear
11:52 PM 44.6 °F - 39.2 °F 81% 30.27 in 10.0 mi Calm Calm - N/A   Mostly Cloudy
11:54 PM 45.0 °F - 39.0 °F 80% 30.32 in 10.0 mi Calm Calm - N/A   Mostly Cloudy